{"data":{"norad_id":60937,"intl_designator":"2024-155P","name":"STARLINK-32259","alt_names":[],"object_type":"PAYLOAD","status":"ACTIVE","operator":null,"country":"US","launch_date":"2024-08-31","launch_site_code":"AFWTR","launch_vehicle":null,"mission":null,"orbit_class":"UNKNOWN","rcs_meters":null,"size_class":null,"mass_kg":null,"dimensions":null,"purposes":["comms"],"wikipedia_slug":null,"has_3d_model":false,"image_url":null,"decayed_at":null,"tle_current":{"epoch":"2026-09-20T10:05:46.974048Z","epoch_age_seconds":195368,"freshness":"STALE","line1":"1 60937U 24155P   26263.42068257  .00000690  00000+0  31579-4 0  9998","line2":"2 60937  53.1597 302.4282 0001352  82.6354 277.4802 15.34390028116190","mean_motion":15.34390028,"eccentricity":0.0001352,"inclination_deg":53.1597,"raan_deg":302.4282,"arg_perigee_deg":82.6354,"mean_anomaly_deg":277.4802,"bstar":3.1579e-5,"rev_number":11619,"period_min":93.848367997866,"perigee_km":461.80799364545,"apogee_km":463.6577648608,"semimajor_km":6840.8698792531,"source":"CELESTRAK","updated_at":"2026-09-22T09:00:49.292243Z"}}}